Location: Angwan Shehu
(11.2514°N, 7.4613°E)
Time: 22:01:06
(UTC+00:00)

N. Korean satellite - Pass Details

Date: 10 March 2021
Orbit: 453 x 499 km, 97.2° (Epoch: 12 April)

Event Time Altitude Azimuth Distance (km) Brightness Sun altitude
Rises 03:59:19 0° 32° (NNE) 2,560 10.7 -25.6°
Reaches altitude 10° 04:01:45 10° 49° (NE) 1,685 9.9 -25.0°
Maximum altitude 04:04:32 21° 100° (E) 1,161 9.2 -24.3°
Drops below altitude 10° 04:07:20 10° 150° (SSE) 1,695 9.7 -23.6°
Sets 04:09:47 0° 166° (SSE) 2,580 10.4 -23.0°
